Content
SEND FEEDBACK

Daily
Averages
Monthly
Summary
United States of America

WILMINGTON, NORTH CAROLINA


Home > North America > United States > North Carolina
Elevation: 72 feet     Latitude: 34 16N     Longitude: 077 54W

WEATHER
 
SELECT A DAY
Number of Records: 214,086;   Date Range: 1/1/95 - 12/18/14
 
SHARE

PRINT THIS DATA

[ ← Previous Day ]
WEATHER ALMANAC - MARCH 25, 2013
[ Next Day → ]
[ °C ]   °F
Weather ElementAverageHighLow
Temperature46.8 °F52 °F (2:53 pm)42.1 °F (1:53 am)
Dewpoint35.3 °F41 °F (1:53 am)26.1 °F (5:53 pm)
Humidity67.3 %96 % (1:53 am)38 % (5:53 pm)
Barometer29.64 in29.85 in (11:53 pm)29.55 in (1:53 am)
Wind Speed15.5 mph27.6 mph (2:53 pm)
Wind Gust36.8 mph (2:53 pm)
Weather ElementAverage
Visibility9.5 mi
Wind DirectionWSW (251 °)

Weather ElementTotal
Precipitation---
Heating Degree Days18 (Base 65)
Averaged from 31 records on March 25, 2013
WEATHER CONDITIONS BREAKOUT
WIND DIRECTION BREAKOUT
WEATHER BY HOUR - MARCH 25, 2013
[ °C ]   °F
Local TimeTemperatureDewpointHumidityBarometerVisibilityWind DirectionWind SpeedGust SpeedPrecipitationEventsConditions
1:53 AM42.1 °F41.0 °F96 %29.55 in10.0 miNE (50°)3.5 mphOvercast
2:53 AM43.0 °F41.0 °F93 %29.59 in10.0 miSW (220°)3.5 mphOvercast
3:53 AM43.0 °F41.0 °F93 %29.57 in5.0 miSW (230°)9.2 mphOvercast
4:20 AM42.8 °F41.0 °F93 %29.58 in4.0 miWSW (250°)10.4 mphOvercast
4:53 AM43.0 °F41.0 °F93 %29.58 in7.0 miWSW (250°)10.4 mphOvercast
5:21 AM42.8 °F41.0 °F93 %29.57 in9.0 miWSW (250°)6.9 mphOvercast
5:53 AM43.0 °F41.0 °F93 %29.59 in10.0 miWSW (240°)13.8 mphOvercast
6:53 AM44.1 °F41.0 °F89 %29.60 in10.0 miWest (260°)11.5 mphOvercast
7:24 AM44.6 °F41.0 °F87 %29.60 in10.0 miWSW (250°)9.2 mphMostly Cloudy
7:32 AM44.6 °F41.0 °F87 %29.60 in10.0 miWSW (240°)10.4 mphMostly Cloudy
7:53 AM45.0 °F41.0 °F86 %29.60 in10.0 miWSW (250°)12.7 mphMostly Cloudy
8:37 AM46.4 °F39.2 °F76 %29.61 in10.0 miWSW (250°)15.0 mphOvercast
8:44 AM46.4 °F39.2 °F76 %29.61 in10.0 miWSW (250°)17.3 mph23.0 mphOvercast
8:53 AM46.0 °F39.0 °F76 %29.61 in10.0 miWSW (250°)21.9 mph25.3 mphOvercast
9:43 AM48.2 °F37.4 °F66 %29.62 in10.0 miWest (260°)20.7 mph27.6 mphMostly Cloudy
9:53 AM48.0 °F37.0 °F66 %29.62 in10.0 miWest (280°)20.7 mph33.4 mphMostly Cloudy
10:00 AM48.2 °F37.4 °F66 %29.62 in10.0 miWest (270°)19.6 mph28.8 mphMostly Cloudy
10:53 AM50.0 °F37.0 °F61 %29.62 in10.0 miWest (270°)19.6 mph29.9 mphScattered Clouds
11:53 AM51.1 °F35.1 °F54 %29.63 in10.0 miWest (280°)24.2 mph33.4 mphScattered Clouds
12:53 PM51.1 °F34.0 °F52 %29.62 in10.0 miWest (280°)20.7 mph28.8 mphMostly Cloudy
1:53 PM51.1 °F32.0 °F48 %29.62 in10.0 miWest (280°)21.9 mph28.8 mphOvercast
2:53 PM52.0 °F30.9 °F45 %29.62 in10.0 miWest (270°)27.6 mph36.8 mphMostly Cloudy
3:53 PM52.0 °F30.9 °F45 %29.62 in10.0 miWest (270°)18.4 mph29.9 mphMostly Cloudy
4:53 PM51.1 °F27.0 °F39 %29.64 in10.0 miWest (270°)26.5 mph34.5 mphOvercast
5:53 PM51.1 °F26.1 °F38 %29.67 in10.0 miWest (270°)21.9 mph28.8 mphOvercast
6:53 PM50.0 °F26.1 °F39 %29.71 in10.0 miWest (260°)16.1 mphOvercast
7:53 PM48.9 °F27.0 °F43 %29.75 in10.0 miWest (260°)17.3 mph25.3 mphOvercast
8:53 PM48.0 °F27.0 °F44 %29.78 in10.0 miWest (260°)12.7 mphOvercast
9:53 PM46.0 °F27.0 °F47 %29.81 in10.0 miWest (260°)11.5 mphOvercast
10:53 PM44.1 °F27.0 °F51 %29.83 in10.0 miWSW (250°)11.5 mphClear
11:53 PM43.0 °F26.1 °F51 %29.85 in10.0 miWSW (250°)13.8 mphClear
Hourly data recorded from KILM, located miles away from Wilmington, North Carolina







STORIES FROM OUR PARTNERS